COSMOS 2361 1 25590U 98076A 25174.60066301 .00000043 00000-0 29631-4 0 9994 2 25590 82.9343 111.3829 0032218 26.7111 146.0151 13.73197037327787 COSMOS 2378 1 26818U 01023A 25174.62918587 .00000034 00000-0 19881-4 0 9994 2 26818 82.9270 127.3257 0032284 328.6515 205.0443 13.74122241205597 COSMOS 2389 1 27436U 02026A 25174.49563580 .00000043 00000-0 29022-4 0 9997 2 27436 82.9509 74.4827 0046249 178.9231 354.2388 13.75136121157810 COSMOS 2398 1 27818U 03023A 25174.56314613 .00000054 00000-0 42237-4 0 9993 2 27818 82.9482 39.5896 0030244 229.6445 144.1324 13.72367333104536 COSMOS 2407 1 28380U 04028A 25174.43590538 .00000046 00000-0 31662-4 0 9993 2 28380 82.9608 340.5009 0039386 173.8137 215.4543 13.76292512 50531 COSMOS 2414 1 28521U 05002A 25174.37279713 .00000062 00000-0 38795-4 0 9997 2 28521 82.9502 315.0218 0038695 272.6457 87.0277 13.87877568 34042 COSMOS 2429 1 32052U 07038A 25174.56781910 .00000044 00000-0 29913-4 0 9992 2 32052 82.9808 110.2133 0038843 154.9985 205.3064 13.75129176892457 COSMOS 2454 1 35635U 09039A 25174.61608750 .00000047 00000-0 25671-4 0 9991 2 35635 82.9567 299.1341 0018723 201.1264 170.0130 13.89903587807782 COSMOS 2463 1 36519U 10017A 25174.38744264 .00000045 00000-0 33284-4 0 9993 2 36519 82.9602 153.3484 0037287 47.3028 104.8136 13.71631373758741